| time (UTC) | temp F | wind direction | speed MPH | gust MPH | rain 1hr in | rain 24hr in | rain mn in | humidity % | barometer mb |
| 20260903174205 | 57 | 235 | 3.0 | 8.0 | 0.00 | 0.17 | 0.06 | 91 | 1006.3 |
| 20260903173205 | 57 | 202 | 4.0 | 12.0 | 0.01 | 0.17 | 0.06 | 91 | 1006.2 |
| 20260903172205 | 57 | 227 | 6.0 | 17.0 | 0.02 | 0.17 | 0.06 | 91 | 1006.1 |
| 20260903171706 | 57 | 219 | 6.0 | 17.0 | 0.03 | 0.18 | 0.06 | 91 | 1006.2 |
| 20260903170706 | 58 | 220 | 6.0 | 16.0 | 0.04 | 0.18 | 0.06 | 90 | 1006.3 |
| 20260903170205 | 58 | 231 | 7.0 | 16.0 | 0.04 | 0.19 | 0.06 | 90 | 1006.3 |
| 20260903165704 | 58 | 210 | 8.0 | 16.0 | 0.04 | 0.19 | 0.06 | 90 | 1006.3 |
| 20260903165205 | 58 | 239 | 8.0 | 15.0 | 0.04 | 0.19 | 0.06 | 90 | 1006.3 |
| 20260903164705 | 58 | 212 | 8.0 | 15.0 | 0.04 | 0.20 | 0.06 | 89 | 1006.4 |
| 20260903164205 | 58 | 219 | 7.0 | 15.0 | 0.04 | 0.20 | 0.06 | 89 | 1006.5 |
| 20260903163705 | 58 | 208 | 7.0 | 15.0 | 0.03 | 0.19 | 0.05 | 88 | 1006.6 |
| 20260903162705 | 59 | 224 | 6.0 | 17.0 | 0.02 | 0.17 | 0.03 | 87 | 1006.7 |
| 20260903161704 | 59 | 232 | 7.0 | 15.0 | 0.01 | 0.17 | 0.02 | 85 | 1006.6 |
| 20260903161205 | 60 | 219 | 7.0 | 19.0 | 0.01 | 0.17 | 0.02 | 85 | 1006.7 |
| 20260903160705 | 60 | 205 | 7.0 | 19.0 | 0.00 | 0.17 | 0.02 | 84 | 1006.8 |
| 20260903160204 | 60 | 209 | 8.0 | 19.0 | 0.00 | 0.17 | 0.02 | 82 | 1006.8 |
| 20260903155205 | 61 | 245 | 9.0 | 22.0 | 0.00 | 0.19 | 0.02 | 80 | 1006.8 |
| 20260903154707 | 61 | 216 | 9.0 | 22.0 | 0.00 | 0.20 | 0.02 | 80 | 1006.7 |
| 20260903154205 | 61 | 208 | 9.0 | 18.0 | 0.00 | 0.20 | 0.02 | 79 | 1006.8 |
| 20260903153707 | 61 | 208 | 9.0 | 18.0 | 0.00 | 0.20 | 0.02 | 80 | 1006.8 |
| 20260903153206 | 61 | 259 | 9.0 | 17.0 | 0.00 | 0.21 | 0.02 | 80 | 1006.8 |
| 20260903152705 | 61 | 225 | 8.0 | 17.0 | 0.00 | 0.21 | 0.02 | 81 | 1006.9 |
| 20260903152205 | 61 | 228 | 8.0 | 17.0 | 0.00 | 0.21 | 0.02 | 81 | 1006.9 |
| 20260903151705 | 61 | 227 | 6.0 | 16.0 | 0.00 | 0.21 | 0.02 | 81 | 1006.9 |
| 20260903151205 | 61 | 214 | 6.0 | 19.0 | 0.00 | 0.22 | 0.02 | 82 | 1006.9 |
| 20260903150704 | 61 | 245 | 8.0 | 19.0 | 0.00 | 0.22 | 0.02 | 81 | 1007.3 |
| 20260903150205 | 61 | 248 | 9.0 | 19.0 | 0.00 | 0.22 | 0.02 | 81 | 1007.4 |
| 20260903145705 | 61 | 209 | 9.0 | 18.0 | 0.00 | 0.22 | 0.02 | 81 | 1007.4 |
| 20260903145205 | 61 | 265 | 8.0 | 19.0 | 0.00 | 0.22 | 0.02 | 80 | 1007.6 |
| 20260903144704 | 61 | 215 | 8.0 | 19.0 | 0.00 | 0.23 | 0.02 | 80 | 1007.7 |
| 20260903144205 | 61 | 224 | 8.0 | 16.0 | 0.00 | 0.23 | 0.02 | 80 | 1007.7 |
| 20260903143705 | 61 | 221 | 6.0 | 17.0 | 0.00 | 0.23 | 0.02 | 80 | 1007.7 |
| 20260903143206 | 61 | 219 | 6.0 | 17.0 | 0.00 | 0.23 | 0.02 | 80 | 1007.9 |
| 20260903142705 | 61 | 221 | 7.0 | 17.0 | 0.00 | 0.23 | 0.02 | 79 | 1007.8 |
| 20260903142206 | 61 | 209 | 7.0 | 20.0 | 0.00 | 0.23 | 0.02 | 79 | 1007.9 |
| 20260903141705 | 62 | 296 | 7.0 | 20.0 | 0.00 | 0.23 | 0.02 | 79 | 1007.9 |
| 20260903140704 | 62 | 200 | 8.0 | 20.0 | 0.00 | 0.23 | 0.02 | 80 | 1007.7 |
| 20260903140226 | 62 | 225 | 8.0 | 16.0 | 0.00 | 0.24 | 0.02 | 80 | 1007.6 |
| 20260903135705 | 62 | 188 | 6.0 | 16.0 | 0.00 | 0.24 | 0.02 | 80 | 1007.7 |
| 20260903135205 | 62 | 215 | 5.0 | 14.0 | 0.00 | 0.24 | 0.02 | 80 | 1007.7 |
| 20260903134705 | 62 | 269 | 4.0 | 14.0 | 0.00 | 0.24 | 0.02 | 80 | 1007.8 |
| 20260903134205 | 62 | 215 | 4.0 | 12.0 | 0.00 | 0.24 | 0.02 | 80 | 1007.8 |
| 20260903133708 | 62 | 219 | 4.0 | 15.0 | 0.00 | 0.24 | 0.02 | 80 | 1007.9 |
| 20260903133205 | 62 | 214 | 5.0 | 15.0 | 0.00 | 0.24 | 0.02 | 80 | 1008.0 |
| 20260903132704 | 62 | 220 | 5.0 | 15.0 | 0.00 | 0.24 | 0.02 | 79 | 1008.0 |
| 20260903131205 | 62 | 275 | 5.0 | 16.0 | 0.00 | 0.24 | 0.02 | 80 | 1007.9 |
| 20260903130705 | 62 | 211 | 5.0 | 16.0 | 0.00 | 0.24 | 0.02 | 79 | 1008.0 |
| 20260903130205 | 62 | 256 | 6.0 | 16.0 | 0.00 | 0.24 | 0.02 | 79 | 1008.2 |
| 20260903125704 | 62 | 216 | 5.0 | 13.0 | 0.00 | 0.24 | 0.02 | 80 | 1008.2 |
| 20260903125206 | 62 | 275 | 5.0 | 15.0 | 0.00 | 0.24 | 0.02 | 80 | 1008.2 |
| 20260903123705 | 62 | 206 | 6.0 | 18.0 | 0.00 | 0.24 | 0.02 | 81 | 1008.2 |
| 20260903123205 | 62 | 240 | 6.0 | 18.0 | 0.00 | 0.24 | 0.02 | 81 | 1007.9 |
| 20260903121205 | 61 | 257 | 7.0 | 19.0 | 0.00 | 0.24 | 0.02 | 81 | 1008.0 |
| 20260903120705 | 61 | 263 | 5.0 | 15.0 | 0.00 | 0.24 | 0.02 | 81 | 1007.9 |
| 20260903120204 | 61 | 228 | 4.0 | 12.0 | 0.00 | 0.24 | 0.02 | 81 | 1008.0 |
| 20260903115704 | 61 | 238 | 4.0 | 12.0 | 0.00 | 0.24 | 0.02 | 80 | 1007.6 |
| 20260903115205 | 61 | 295 | 5.0 | 16.0 | 0.00 | 0.24 | 0.02 | 80 | 1007.7 |
| 20260903114705 | 61 | 242 | 5.0 | 16.0 | 0.00 | 0.24 | 0.02 | 81 | 1007.8 |
| 20260903113705 | 61 | 256 | 6.0 | 13.0 | 0.00 | 0.24 | 0.02 | 82 | 1008.0 |
| 20260903113205 | 61 | 292 | 5.0 | 13.0 | 0.00 | 0.24 | 0.02 | 81 | 1008.1 |
| 20260903112704 | 61 | 273 | 4.0 | 15.0 | 0.00 | 0.24 | 0.02 | 83 | 1008.0 |
| 20260903112205 | 61 | 205 | 5.0 | 18.0 | 0.00 | 0.24 | 0.02 | 82 | 1008.0 |
| 20260903111705 | 61 | 273 | 6.0 | 18.0 | 0.00 | 0.24 | 0.02 | 82 | 1008.0 |
| 20260903111223 | 62 | 254 | 7.0 | 18.0 | 0.00 | 0.24 | 0.02 | 83 | 1008.0 |
| 20260903110705 | 62 | 203 | 7.0 | 17.0 | 0.00 | 0.24 | 0.02 | 83 | 1007.8 |
| 20260903110205 | 63 | 211 | 8.0 | 19.0 | 0.00 | 0.24 | 0.02 | 82 | 1008.0 |
| 20260903105704 | 63 | 244 | 8.0 | 19.0 | 0.00 | 0.24 | 0.02 | 84 | 1007.7 |
| 20260903105205 | 62 | 201 | 6.0 | 19.0 | 0.00 | 0.24 | 0.02 | 86 | 1007.8 |
| 20260903104704 | 62 | 211 | 7.0 | 18.0 | 0.00 | 0.24 | 0.02 | 85 | 1007.6 |
| 20260903103705 | 63 | 226 | 5.0 | 13.0 | 0.00 | 0.24 | 0.02 | 86 | 1007.7 |
| 20260903103206 | 60 | 233 | 4.0 | 13.0 | 0.00 | 0.24 | 0.02 | 89 | 1007.8 |
| 20260903102705 | 60 | 215 | 4.0 | 10.0 | 0.00 | 0.24 | 0.02 | 89 | 1007.9 |
| 20260903102206 | 60 | 263 | 3.0 | 9.0 | 0.00 | 0.24 | 0.02 | 88 | 1007.8 |
| 20260903101705 | 60 | 248 | 4.0 | 13.0 | 0.00 | 0.24 | 0.02 | 88 | 1007.9 |
| 20260903101204 | 60 | 270 | 5.0 | 17.0 | 0.00 | 0.24 | 0.02 | 88 | 1007.9 |
| 20260903100705 | 60 | 297 | 5.0 | 17.0 | 0.00 | 0.24 | 0.02 | 87 | 1008.1 |
| 20260903100205 | 61 | 246 | 5.0 | 17.0 | 0.00 | 0.24 | 0.02 | 89 | 1008.1 |
| 20260903095205 | 60 | 235 | 4.0 | 11.0 | 0.00 | 0.24 | 0.02 | 91 | 1007.8 |
| 20260903094705 | 59 | 240 | 5.0 | 11.0 | 0.00 | 0.24 | 0.02 | 92 | 1007.9 |
| 20260903094205 | 59 | 284 | 5.0 | 10.0 | 0.00 | 0.24 | 0.02 | 93 | 1007.9 |
| 20260903093206 | 58 | 250 | 6.0 | 16.0 | 0.00 | 0.24 | 0.02 | 95 | 1008.0 |
| 20260903092705 | 58 | 204 | 6.0 | 16.0 | 0.00 | 0.24 | 0.02 | 95 | 1008.0 |
| 20260903092205 | 58 | 186 | 6.0 | 13.0 | 0.00 | 0.24 | 0.02 | 95 | 1008.1 |
| 20260903091705 | 57 | 199 | 5.0 | 13.0 | 0.00 | 0.24 | 0.02 | 96 | 1008.1 |
| 20260903091205 | 57 | 258 | 6.0 | 12.0 | 0.00 | 0.24 | 0.02 | 95 | 1008.0 |
| 20260903090705 | 57 | 187 | 5.0 | 14.0 | 0.00 | 0.25 | 0.02 | 95 | 1008.0 |
| 20260903090205 | 57 | 234 | 4.0 | 14.0 | 0.00 | 0.26 | 0.02 | 96 | 1007.9 |
| 20260903085206 | 56 | 189 | 4.0 | 15.0 | 0.00 | 0.27 | 0.02 | 96 | 1007.9 |
| 20260903084705 | 56 | 235 | 6.0 | 15.0 | 0.00 | 0.27 | 0.02 | 96 | 1007.7 |
| 20260903084206 | 57 | 264 | 5.0 | 11.0 | 0.00 | 0.28 | 0.02 | 96 | 1007.7 |
| 20260903083705 | 56 | 217 | 4.0 | 12.0 | 0.00 | 0.28 | 0.02 | 96 | 1007.6 |
| 20260903083205 | 56 | 211 | 5.0 | 12.0 | 0.00 | 0.28 | 0.02 | 96 | 1007.5 |
| 20260903082705 | 56 | 263 | 4.0 | 12.0 | 0.00 | 0.28 | 0.02 | 96 | 1007.6 |
| 20260903082205 | 56 | 286 | 4.0 | 12.0 | 0.00 | 0.29 | 0.02 | 97 | 1007.5 |
| 20260903081706 | 56 | 274 | 5.0 | 13.0 | 0.00 | 0.29 | 0.02 | 97 | 1007.5 |
| 20260903081205 | 56 | 293 | 4.0 | 15.0 | 0.00 | 0.30 | 0.02 | 97 | 1007.3 |
| 20260903080705 | 56 | 239 | 4.0 | 15.0 | 0.00 | 0.30 | 0.02 | 96 | 1007.2 |
| 20260903080205 | 56 | 281 | 5.0 | 15.0 | 0.00 | 0.30 | 0.02 | 96 | 1007.2 |
| 20260903075704 | 56 | 266 | 6.0 | 13.0 | 0.00 | 0.30 | 0.02 | 97 | 1007.2 |
| 20260903075206 | 56 | 236 | 5.0 | 13.0 | 0.00 | 0.30 | 0.02 | 97 | 1007.0 |
| 20260903074705 | 56 | 281 | 5.0 | 11.0 | 0.00 | 0.31 | 0.02 | 97 | 1007.3 |
| 20260903074205 | 56 | 279 | 5.0 | 11.0 | 0.00 | 0.31 | 0.02 | 97 | 1007.3 |
| 20260903073205 | 57 | 300 | 3.0 | 11.0 | 0.00 | 0.31 | 0.02 | 97 | 1007.6 |
| 20260903072206 | 57 | 258 | 4.0 | 12.0 | 0.00 | 0.31 | 0.02 | 97 | 1007.5 |
| 20260903071705 | 56 | 281 | 4.0 | 13.0 | 0.00 | 0.31 | 0.02 | 97 | 1007.4 |
| 20260903071205 | 56 | 303 | 4.0 | 13.0 | 0.00 | 0.31 | 0.02 | 97 | 1007.2 |
| 20260903070704 | 56 | 252 | 4.0 | 14.0 | 0.00 | 0.31 | 0.02 | 97 | 1007.0 |
| 20260903070205 | 55 | 193 | 4.0 | 14.0 | 0.00 | 0.31 | 0.02 | 97 | 1006.8 |
| 20260903065705 | 55 | 246 | 5.0 | 14.0 | 0.00 | 0.32 | 0.02 | 97 | 1006.7 |
| 20260903064705 | 55 | 257 | 6.0 | 13.0 | 0.00 | 0.32 | 0.02 | 97 | 1006.5 |
| 20260903064205 | 56 | 268 | 6.0 | 13.0 | 0.00 | 0.32 | 0.02 | 97 | 1006.5 |
| 20260903063705 | 56 | 155 | 6.0 | 13.0 | 0.00 | 0.32 | 0.02 | 97 | 1006.5 |
| 20260903063205 | 56 | 250 | 5.0 | 12.0 | 0.00 | 0.32 | 0.02 | 97 | 1006.4 |
| 20260903062705 | 56 | 292 | 4.0 | 11.0 | 0.00 | 0.32 | 0.02 | 97 | 1006.5 |
| 20260903061705 | 56 | 261 | 4.0 | 11.0 | 0.00 | 0.32 | 0.02 | 97 | 1006.4 |
| 20260903061226 | 56 | 225 | 5.0 | 11.0 | 0.00 | 0.32 | 0.02 | 97 | 1006.4 |
| 20260903060705 | 56 | 206 | 4.0 | 11.0 | 0.00 | 0.32 | 0.02 | 97 | 1006.3 |
| 20260903060205 | 56 | 234 | 5.0 | 14.0 | 0.00 | 0.32 | 0.02 | 97 | 1006.1 |
| 20260903055206 | 57 | 240 | 7.0 | 16.0 | 0.00 | 0.32 | 0.02 | 97 | 1005.7 |
| 20260903054205 | 57 | 176 | 5.0 | 16.0 | 0.00 | 0.32 | 0.02 | 97 | 1005.6 |
| 20260903053705 | 58 | 231 | 5.0 | 18.0 | 0.00 | 0.32 | 0.02 | 97 | 1005.5 |
| 20260903053204 | 58 | 225 | 5.0 | 18.0 | 0.00 | 0.32 | 0.02 | 97 | 1005.3 |
| 20260903052205 | 58 | 202 | 6.0 | 16.0 | 0.00 | 0.32 | 0.02 | 97 | 1005.3 |
| 20260903051704 | 58 | 217 | 6.0 | 16.0 | 0.00 | 0.32 | 0.02 | 97 | 1005.1 |
| 20260903050706 | 58 | 317 | 5.0 | 12.0 | 0.00 | 0.32 | 0.02 | 97 | 1005.2 |
| 20260903050205 | 58 | 206 | 5.0 | 12.0 | 0.00 | 0.32 | 0.02 | 97 | 1005.2 |
| 20260903045705 | 58 | 215 | 4.0 | 14.0 | 0.00 | 0.32 | 0.02 | 97 | 1005.2 |
| 20260903045206 | 58 | 245 | 4.0 | 14.0 | 0.00 | 0.32 | 0.02 | 97 | 1005.3 |
| 20260903044705 | 58 | 207 | 4.0 | 14.0 | 0.00 | 0.32 | 0.02 | 97 | 1005.2 |
| 20260903044205 | 58 | 234 | 4.0 | 12.0 | 0.00 | 0.32 | 0.02 | 97 | 1005.2 |
| 20260903042705 | 58 | 216 | 3.0 | 10.0 | 0.00 | 0.32 | 0.02 | 97 | 1005.4 |
| 20260903042226 | 58 | 183 | 3.0 | 10.0 | 0.00 | 0.32 | 0.02 | 97 | 1005.4 |
| 20260903041705 | 58 | 216 | 3.0 | 9.0 | 0.00 | 0.32 | 0.02 | 97 | 1005.4 |
| 20260903040704 | 58 | 233 | 4.0 | 13.0 | 0.00 | 0.32 | 0.02 | 97 | 1005.4 |
| 20260903040205 | 58 | 239 | 4.0 | 16.0 | 0.00 | 0.32 | 0.02 | 97 | 1005.4 |
| 20260903035705 | 58 | 217 | 4.0 | 16.0 | 0.00 | 0.32 | 0.02 | 97 | 1005.3 |
| 20260903035205 | 58 | 241 | 6.0 | 16.0 | 0.00 | 0.32 | 0.02 | 97 | 1005.2 |
| 20260903034705 | 58 | 248 | 4.0 | 14.0 | 0.00 | 0.32 | 0.02 | 97 | 1005.2 |
| 20260903034207 | 58 | 258 | 2.0 | 10.0 | 0.00 | 0.32 | 0.02 | 97 | 1005.2 |
| 20260903033704 | 58 | 211 | 2.0 | 12.0 | 0.00 | 0.32 | 0.02 | 97 | 1005.2 |
| 20260903032704 | 58 | 244 | 4.0 | 15.0 | 0.00 | 0.32 | 0.02 | 97 | 1005.2 |
| 20260903031705 | 58 | 300 | 4.0 | 10.0 | 0.00 | 0.32 | 0.02 | 97 | 1005.1 |
| 20260903031207 | 58 | 214 | 3.0 | 10.0 | 0.00 | 0.32 | 0.02 | 97 | 1005.1 |
| 20260903030705 | 58 | 239 | 3.0 | 10.0 | 0.00 | 0.32 | 0.02 | 97 | 1005.1 |
| 20260903025708 | 58 | 246 | 5.0 | 16.0 | 0.00 | 0.32 | 0.02 | 97 | 1004.9 |
| 20260903025208 | 58 | 322 | 5.0 | 16.0 | 0.00 | 0.32 | 0.02 | 97 | 1005.0 |
| 20260903024705 | 58 | 191 | 5.0 | 13.0 | 0.00 | 0.32 | 0.02 | 97 | 1004.9 |
| 20260903024205 | 58 | 257 | 5.0 | 14.0 | 0.00 | 0.32 | 0.02 | 97 | 1004.9 |
| 20260903023705 | 59 | 258 | 4.0 | 14.0 | 0.00 | 0.32 | 0.02 | 97 | 1004.9 |
| 20260903022705 | 59 | 236 | 3.0 | 12.0 | 0.00 | 0.32 | 0.02 | 97 | 1004.9 |
| 20260903021719 | 59 | 237 | 4.0 | 16.0 | 0.00 | 0.32 | 0.02 | 97 | 1004.9 |
| 20260903021205 | 59 | 240 | 5.0 | 16.0 | 0.00 | 0.32 | 0.02 | 97 | 1005.0 |
| 20260903020205 | 59 | 261 | 7.0 | 16.0 | 0.00 | 0.32 | 0.02 | 97 | 1004.9 |
| 20260903015722 | 59 | 225 | 7.0 | 16.0 | 0.00 | 0.32 | 0.02 | 97 | 1004.9 |
| 20260903015205 | 59 | 234 | 7.0 | 18.0 | 0.00 | 0.32 | 0.02 | 97 | 1004.9 |
| 20260903014705 | 59 | 222 | 7.0 | 18.0 | 0.00 | 0.32 | 0.02 | 97 | 1004.8 |
| 20260903014205 | 59 | 261 | 7.0 | 18.0 | 0.00 | 0.32 | 0.02 | 97 | 1004.8 |
| 20260903013708 | 59 | 234 | 6.0 | 14.0 | 0.00 | 0.32 | 0.02 | 97 | 1004.5 |
| 20260903013205 | 60 | 242 | 5.0 | 16.0 | 0.00 | 0.32 | 0.02 | 97 | 1004.7 |
| 20260903012706 | 60 | 271 | 5.0 | 16.0 | 0.00 | 0.32 | 0.02 | 97 | 1004.7 |
| 20260903012205 | 60 | 248 | 5.0 | 16.0 | 0.00 | 0.32 | 0.02 | 97 | 1004.8 |
| 20260903011705 | 60 | 241 | 5.0 | 15.0 | 0.01 | 0.32 | 0.02 | 97 | 1004.8 |
| 20260903011205 | 60 | 284 | 6.0 | 20.0 | 0.01 | 0.32 | 0.02 | 97 | 1004.8 |
| 20260903010733 | 60 | 269 | 6.0 | 20.0 | 0.01 | 0.32 | 0.02 | 97 | 1004.7 |
| 20260903005705 | 60 | 250 | 7.0 | 25.0 | 0.01 | 0.32 | 0.02 | 97 | 1004.6 |
| 20260903005205 | 61 | 304 | 8.0 | 25.0 | 0.01 | 0.32 | 0.02 | 97 | 1004.6 |
| 20260903004705 | 61 | 224 | 7.0 | 25.0 | 0.01 | 0.32 | 0.02 | 97 | 1004.6 |
| 20260903004205 | 61 | 235 | 4.0 | 15.0 | 0.01 | 0.32 | 0.02 | 97 | 1004.6 |
| 20260903003705 | 61 | 273 | 6.0 | 14.0 | 0.01 | 0.32 | 0.02 | 97 | 1004.6 |
| 20260903003205 | 61 | 207 | 6.0 | 14.0 | 0.02 | 0.32 | 0.02 | 97 | 1004.6 |
| 20260903002705 | 61 | 247 | 6.0 | 14.0 | 0.02 | 0.32 | 0.02 | 97 | 1004.5 |
| 20260903002205 | 61 | 208 | 5.0 | 14.0 | 0.01 | 0.31 | 0.01 | 97 | 1004.5 |
| 20260903001705 | 60 | 227 | 5.0 | 16.0 | 0.01 | 0.31 | 0.01 | 97 | 1004.6 |
| 20260903001205 | 61 | 254 | 5.0 | 16.0 | 0.01 | 0.31 | 0.01 | 97 | 1004.6 |
| 20260903000705 | 60 | 269 | 6.0 | 16.0 | 0.01 | 0.31 | 0.01 | 97 | 1004.5 |
| 20260903000205 | 60 | 225 | 6.0 | 14.0 | 0.01 | 0.31 | 0.01 | 97 | 1004.6 |
| 20260902235705 | 60 | 234 | 5.0 | 12.0 | 0.02 | 0.31 | 0.01 | 97 | 1004.7 |
| 20260902235205 | 60 | 244 | 6.0 | 12.0 | 0.02 | 0.31 | 0.01 | 97 | 1004.7 |
| 20260902234723 | 60 | 254 | 5.0 | 12.0 | 0.02 | 0.31 | 0.01 | 97 | 1004.7 |
| 20260902234205 | 60 | 246 | 4.0 | 7.0 | 0.02 | 0.31 | 0.01 | 97 | 1004.7 |
| 20260902233705 | 60 | 187 | 3.0 | 7.0 | 0.01 | 0.31 | 0.00 | 97 | 1004.8 |
| 20260902232705 | 59 | 198 | 3.0 | 7.0 | 0.01 | 0.31 | 0.00 | 97 | 1004.9 |
| 20260902232205 | 59 | 220 | 3.0 | 6.0 | 0.01 | 0.31 | 0.00 | 97 | 1004.8 |
| 20260902231705 | 59 | 201 | 2.0 | 6.0 | 0.02 | 0.31 | 0.00 | 97 | 1004.8 |
| 20260902231205 | 59 | 191 | 1.0 | 3.0 | 0.02 | 0.31 | 0.00 | 97 | 1005.0 |
| 20260902230704 | 58 | 227 | 1.0 | 3.0 | 0.02 | 0.31 | 0.00 | 97 | 1005.0 |
| 20260902230205 | 58 | 212 | 0.0 | 1.0 | 0.02 | 0.31 | 0.31 | 97 | 1005.0 |
| 20260902225704 | 58 | 309 | 0.0 | 1.0 | 0.05 | 0.30 | 0.30 | 97 | 1005.2 |
| 20260902225221 | 59 | 309 | 0.0 | 3.0 | 0.06 | 0.30 | 0.30 | 97 | 1005.3 |
| 20260902224705 | 59 | 309 | 0.0 | 4.0 | 0.07 | 0.30 | 0.30 | 97 | 1005.3 |
| 20260902223705 | 59 | 271 | 1.0 | 5.0 | 0.09 | 0.30 | 0.30 | 97 | 1005.2 |
| 20260902223205 | 59 | 112 | 1.0 | 5.0 | 0.09 | 0.30 | 0.30 | 97 | 1005.1 |
| 20260902222705 | 58 | 184 | 1.0 | 3.0 | 0.09 | 0.30 | 0.30 | 97 | 1005.2 |
| 20260902222206 | 58 | 140 | 1.0 | 3.0 | 0.09 | 0.29 | 0.29 | 97 | 1005.2 |
| 20260902221707 | 58 | 99 | 1.0 | 3.0 | 0.09 | 0.29 | 0.29 | 97 | 1005.2 |
| 20260902220705 | 58 | 88 | 1.0 | 4.0 | 0.08 | 0.28 | 0.28 | 97 | 1005.4 |
| 20260902215705 | 58 | 110 | 2.0 | 4.0 | 0.04 | 0.24 | 0.24 | 97 | 1005.6 |
| 20260902215205 | 58 | 109 | 1.0 | 4.0 | 0.02 | 0.23 | 0.23 | 97 | 1005.6 |
| 20260902214705 | 58 | 89 | 1.0 | 4.0 | 0.02 | 0.23 | 0.23 | 97 | 1005.7 |
| 20260902214205 | 58 | 111 | 1.0 | 4.0 | 0.02 | 0.22 | 0.22 | 97 | 1005.8 |
| 20260902213705 | 58 | 128 | 1.0 | 4.0 | 0.01 | 0.21 | 0.21 | 97 | 1005.8 |
| 20260902213205 | 58 | 103 | 1.0 | 3.0 | 0.01 | 0.21 | 0.21 | 97 | 1006.0 |
| 20260902212705 | 58 | 86 | 1.0 | 3.0 | 0.00 | 0.20 | 0.20 | 97 | 1006.0 |
| 20260902212205 | 58 | 111 | 0.0 | 2.0 | 0.00 | 0.20 | 0.20 | 97 | 1006.0 |
| 20260902211705 | 58 | 192 | 0.0 | 7.0 | 0.00 | 0.20 | 0.20 | 97 | 1006.0 |
| 20260902211205 | 58 | 192 | 1.0 | 7.0 | 0.00 | 0.20 | 0.20 | 97 | 1006.1 |
| 20260902210705 | 58 | 119 | 3.0 | 7.0 | 0.00 | 0.20 | 0.20 | 97 | 1006.0 |
| 20260902210205 | 58 | 82 | 3.0 | 6.0 | 0.00 | 0.20 | 0.20 | 97 | 1006.0 |
| 20260902205704 | 58 | 88 | 2.0 | 8.0 | 0.00 | 0.20 | 0.20 | 97 | 1006.1 |
| 20260902205206 | 58 | 86 | 2.0 | 8.0 | 0.00 | 0.20 | 0.20 | 97 | 1006.2 |
| 20260902204709 | 58 | 88 | 2.0 | 8.0 | 0.00 | 0.20 | 0.20 | 97 | 1006.3 |
| 20260902204205 | 58 | 87 | 2.0 | 7.0 | 0.00 | 0.20 | 0.20 | 97 | 1006.5 |
| 20260902203705 | 58 | 86 | 3.0 | 7.0 | 0.00 | 0.20 | 0.20 | 97 | 1006.5 |
| 20260902203205 | 58 | 90 | 3.0 | 6.0 | 0.01 | 0.20 | 0.20 | 97 | 1006.4 |
| 20260902202705 | 58 | 72 | 3.0 | 6.0 | 0.01 | 0.20 | 0.20 | 97 | 1006.6 |
| 20260902202206 | 58 | 69 | 2.0 | 6.0 | 0.01 | 0.20 | 0.20 | 97 | 1006.6 |
| 20260902201705 | 58 | 99 | 3.0 | 7.0 | 0.01 | 0.20 | 0.20 | 97 | 1006.6 |
| 20260902195705 | 58 | 101 | 2.0 | 4.0 | 0.01 | 0.20 | 0.20 | 97 | 1006.6 |
| 20260902195205 | 58 | 79 | 2.0 | 4.0 | 0.01 | 0.20 | 0.20 | 97 | 1006.8 |
| 20260902194706 | 58 | 82 | 1.0 | 4.0 | 0.01 | 0.20 | 0.20 | 97 | 1006.9 |
| 20260902194205 | 58 | 87 | 1.0 | 3.0 | 0.01 | 0.20 | 0.20 | 97 | 1007.0 |
| 20260902193705 | 58 | 87 | 1.0 | 3.0 | 0.01 | 0.20 | 0.20 | 97 | 1007.2 |
| 20260902193205 | 58 | 87 | 1.0 | 3.0 | 0.00 | 0.20 | 0.20 | 97 | 1007.2 |
| 20260902192705 | 58 | 87 | 1.0 | 3.0 | 0.00 | 0.20 | 0.20 | 97 | 1007.3 |
| 20260902192205 | 58 | 87 | 1.0 | 3.0 | 0.00 | 0.20 | 0.20 | 97 | 1007.4 |
| 20260902191705 | 58 | 87 | 1.0 | 4.0 | 0.00 | 0.20 | 0.20 | 96 | 1007.4 |
| 20260902191205 | 58 | 78 | 2.0 | 4.0 | 0.00 | 0.20 | 0.20 | 96 | 1007.5 |
| 20260902190704 | 58 | 72 | 2.0 | 4.0 | 0.00 | 0.20 | 0.20 | 96 | 1007.5 |
| 20260902190205 | 58 | 70 | 1.0 | 5.0 | 0.00 | 0.20 | 0.20 | 96 | 1007.5 |
| 20260902185705 | 58 | 67 | 2.0 | 5.0 | 0.00 | 0.20 | 0.20 | 96 | 1007.6 |
| 20260902185208 | 58 | 56 | 2.0 | 5.0 | 0.00 | 0.20 | 0.20 | 96 | 1007.5 |
| 20260902184205 | 58 | 64 | 2.0 | 5.0 | 0.00 | 0.20 | 0.20 | 96 | 1007.5 |
| 20260902183705 | 58 | 72 | 2.0 | 5.0 | 0.00 | 0.20 | 0.20 | 96 | 1007.6 |
| 20260902183205 | 58 | 73 | 2.0 | 6.0 | 0.01 | 0.20 | 0.20 | 96 | 1007.8 |
| 20260902182705 | 58 | 80 | 2.0 | 8.0 | 0.01 | 0.20 | 0.20 | 96 | 1007.9 |
| 20260902182205 | 58 | 67 | 3.0 | 8.0 | 0.01 | 0.20 | 0.20 | 96 | 1007.9 |
| 20260902181705 | 58 | 92 | 4.0 | 8.0 | 0.02 | 0.20 | 0.20 | 96 | 1007.9 |
| 20260902181205 | 58 | 82 | 4.0 | 7.0 | 0.02 | 0.20 | 0.20 | 96 | 1008.0 |
| 20260902180706 | 58 | 77 | 3.0 | 7.0 | 0.02 | 0.20 | 0.20 | 96 | 1008.2 |
| 20260902180205 | 58 | 91 | 3.0 | 7.0 | 0.02 | 0.20 | 0.20 | 96 | 1008.3 |
| 20260902175705 | 58 | 61 | 3.0 | 7.0 | 0.02 | 0.20 | 0.20 | 96 | 1008.4 |
| 20260902174705 | 58 | 71 | 3.0 | 7.0 | 0.03 | 0.20 | 0.20 | 96 | 1008.5 |